OneWeb SL0135

operational
NORAD ID: 47259 Int'l Des: 2020-100 Owner: ONEWEB Country: UK Constellation: oneweb
LEOCIRCULARPOLARONEWEB_TYPE

Über OneWeb SL0135

Beschreibung wird geladen...

Live-Position

3D-Globus wird geladen...

Nächste Überflüge

Höhenverlauf

Altitude vs Time

uPlot chart will show altitude changes over time

Zweizeiliger Elementsatz

1 47259U 20100B 25258.46038032 -.00000032 00000-0 -12392-3 0 9995
2 47259 87.8904 45.2350 0001573 101.3740 258.7565 13.12445246228525
Epoch: 15. Sept. 2025 • Age: 21 hours

Aktueller Status

Höhe 1226.6 km
Geschwindigkeit 7.24 km/s
Subsatellitenpunkt -32.87°S, 107.04°E
Startdatum 18. Dez. 2020
Alter 4.7 years
Typ internet

Technische Details

Klassifizierung Payload
Masse 148.00 kg
Trockenmasse 140.00 kg
Gesamtmasse 148.00 kg
Länge 1.30 m
Durchmesser 1.00 m
Spannweite 5.00 m
Form Trapezoid+2 pan
Hersteller ONEWUS
Bus-Typ ARROW
Phasenstatus In Orbit
Besitzer/Staat ONEWEB/UK

Große Konstellationen

Loading constellations...